Hourly Weather Elabuga

Today, 10 July, Friday

Time Temperature Precipitation Wind Pressure Humidity
00:00 +24°C° 0 mm 2 mps 749 mmHg 82%
01:00 +24°C° 0 mm 2 mps 749 mmHg 82%
02:00 +23°C° 0 mm 2 mps 749 mmHg 83%
03:00 +23°C° 0 mm 2 mps 750 mmHg 83%
04:00 +24°C° 0 mm 2 mps 750 mmHg 82%
05:00 +25°C° 0 mm 2 mps 750 mmHg 81%
06:00 +25°C° 0 mm 2 mps 750 mmHg 80%
07:00 +27°C° 0 mm 3 mps 750 mmHg 76%
08:00 +28°C° 0 mm 3 mps 750 mmHg 72%
09:00 +29°C° 0 mm 3 mps 750 mmHg 69%
10:00 +29°C° 0 mm 4 mps 750 mmHg 67%
11:00 +30°C° 0 mm 4 mps 750 mmHg 65%
12:00 +32°C° 0 mm 4 mps 750 mmHg 63%
13:00 +30°C° 0.2 mm 4 mps 750 mmHg 66%
14:00 +30°C° 0.2 mm 4 mps 751 mmHg 68%
15:00 +30°C° 0.2 mm 4 mps 751 mmHg 71%
16:00 +28°C° 1.1 mm 4 mps 751 mmHg 75%
17:00 +27°C° 1.1 mm 4 mps 751 mmHg 79%
18:00 +25°C° 1.1 mm 4 mps 751 mmHg 84%
19:00 +24°C° 0.1 mm 3 mps 752 mmHg 85%
20:00 +21°C° 0.1 mm 2 mps 752 mmHg 87%
21:00 +20°C° 0.1 mm 2 mps 752 mmHg 88%
22:00 +20°C° 0 mm 2 mps 752 mmHg 89%
23:00 +19°C° 0 mm 2 mps 752 mmHg 89%

Tomorrow, 11 July, Saturday

Time Temperature Precipitation Wind Pressure Humidity
00:00 +19°C° 0 mm 2 mps 752 mmHg 90%
01:00 +18°C° 0.1 mm 2 mps 753 mmHg 92%
02:00 +18°C° 0.1 mm 2 mps 753 mmHg 94%
03:00 +17°C° 0.1 mm 2 mps 754 mmHg 96%
04:00 +18°C° 0 mm 2 mps 754 mmHg 94%
05:00 +18°C° 0 mm 3 mps 754 mmHg 92%
06:00 +19°C° 0 mm 3 mps 754 mmHg 90%
07:00 +20°C° 0 mm 3 mps 754 mmHg 85%
08:00 +21°C° 0 mm 3 mps 754 mmHg 79%
09:00 +22°C° 0 mm 3 mps 754 mmHg 74%
10:00 +24°C° 0 mm 3 mps 754 mmHg 69%
11:00 +25°C° 0 mm 3 mps 754 mmHg 64%
12:00 +26°C° 0 mm 3 mps 754 mmHg 60%
13:00 +26°C° 0 mm 3 mps 754 mmHg 59%
14:00 +26°C° 0 mm 3 mps 754 mmHg 59%
15:00 +26°C° 0 mm 3 mps 754 mmHg 58%
16:00 +26°C° 0 mm 3 mps 754 mmHg 63%
17:00 +25°C° 0 mm 3 mps 754 mmHg 68%
18:00 +24°C° 0 mm 2 mps 754 mmHg 73%
19:00 +21°C° 0 mm 2 mps 754 mmHg 75%
20:00 +20°C° 0 mm 2 mps 754 mmHg 77%
21:00 +19°C° 0 mm 1 mps 754 mmHg 78%
22:00 +19°C° 0 mm 1 mps 754 mmHg 78%
23:00 +18°C° 0 mm 1 mps 754 mmHg 78%

Day after tomorrow, 12 July, Sunday

Time Temperature Precipitation Wind Pressure Humidity
00:00 +16°C° 0 mm 1 mps 754 mmHg 78%
01:00 +16°C° 0 mm 1 mps 754 mmHg 78%
02:00 +15°C° 0 mm 0 mps 755 mmHg 78%
03:00 +14°C° 0 mm 0 mps 755 mmHg 77%
04:00 +16°C° 0 mm 0 mps 755 mmHg 76%
05:00 +17°C° 0 mm 0 mps 755 mmHg 74%
06:00 +18°C° 0 mm 0 mps 755 mmHg 73%
07:00 +20°C° 0 mm 0 mps 755 mmHg 69%
08:00 +21°C° 0 mm 0 mps 755 mmHg 65%
09:00 +22°C° 0 mm 0 mps 755 mmHg 60%
10:00 +25°C° 0 mm 1 mps 755 mmHg 58%
11:00 +26°C° 0 mm 1 mps 754 mmHg 56%
12:00 +27°C° 0 mm 1 mps 754 mmHg 53%
13:00 +27°C° 0 mm 1 mps 754 mmHg 53%
14:00 +27°C° 0 mm 1 mps 754 mmHg 53%
15:00 +28°C° 0 mm 1 mps 754 mmHg 52%
16:00 +25°C° 0 mm 0 mps 753 mmHg 57%
17:00 +25°C° 0 mm 0 mps 753 mmHg 62%
18:00 +25°C° 0 mm 0 mps 753 mmHg 67%
19:00 +23°C° 0 mm 0 mps 753 mmHg 69%
20:00 +21°C° 0 mm 0 mps 753 mmHg 72%
21:00 +19°C° 0 mm 0 mps 753 mmHg 74%
22:00 +18°C° 0 mm 0 mps 753 mmHg 75%
23:00 +20°C° 0 mm 1 mps 752 mmHg 77%

13 July, Monday

Time Temperature Precipitation Wind Pressure Humidity
00:00 +19°C° 0 mm 1 mps 752 mmHg 78%
01:00 +19°C° 0 mm 1 mps 752 mmHg 79%
02:00 +19°C° 0 mm 1 mps 752 mmHg 81%
03:00 +18°C° 0 mm 1 mps 752 mmHg 82%
04:00 +20°C° 0 mm 1 mps 752 mmHg 81%
05:00 +21°C° 0 mm 1 mps 752 mmHg 79%
06:00 +22°C° 0 mm 1 mps 752 mmHg 77%
07:00 +23°C° 0 mm 1 mps 752 mmHg 73%
08:00 +25°C° 0 mm 1 mps 752 mmHg 70%
09:00 +26°C° 0 mm 2 mps 752 mmHg 66%
10:00 +27°C° 0 mm 2 mps 751 mmHg 63%
11:00 +27°C° 0 mm 2 mps 751 mmHg 61%
12:00 +28°C° 0 mm 2 mps 751 mmHg 58%
13:00 +28°C° 0 mm 2 mps 751 mmHg 59%
14:00 +29°C° 0 mm 2 mps 751 mmHg 59%
15:00 +29°C° 0 mm 2 mps 750 mmHg 60%
16:00 +28°C° 0.1 mm 2 mps 750 mmHg 65%
17:00 +27°C° 0.1 mm 2 mps 750 mmHg 71%
18:00 +27°C° 0.1 mm 1 mps 750 mmHg 76%
19:00 +25°C° 0 mm 2 mps 750 mmHg 78%
20:00 +24°C° 0 mm 2 mps 750 mmHg 80%
21:00 +23°C° 0 mm 2 mps 750 mmHg 81%
22:00 +23°C° 0.1 mm 2 mps 750 mmHg 82%
23:00 +23°C° 0.1 mm 2 mps 750 mmHg 82%

14 July, Tuesday

Time Temperature Precipitation Wind Pressure Humidity
00:00 +21°C° 0.1 mm 2 mps 750 mmHg 83%
01:00 +21°C° 0 mm 2 mps 750 mmHg 84%
02:00 +22°C° 0 mm 1 mps 749 mmHg 86%
03:00 +21°C° 0 mm 1 mps 749 mmHg 87%
04:00 +21°C° 0 mm 2 mps 749 mmHg 86%
05:00 +21°C° 0 mm 2 mps 749 mmHg 85%
06:00 +21°C° 0 mm 3 mps 749 mmHg 84%
07:00 +22°C° 0 mm 3 mps 749 mmHg 81%
08:00 +25°C° 0 mm 4 mps 749 mmHg 78%
09:00 +26°C° 0 mm 5 mps 749 mmHg 75%
10:00 +27°C° 0 mm 5 mps 749 mmHg 75%
11:00 +28°C° 0 mm 5 mps 748 mmHg 75%
12:00 +29°C° 0 mm 5 mps 748 mmHg 75%
13:00 +30°C° 0 mm 5 mps 748 mmHg 74%
14:00 +30°C° 0 mm 5 mps 747 mmHg 72%
15:00 +32°C° 0 mm 5 mps 747 mmHg 71%
16:00 +32°C° 0 mm 4 mps 747 mmHg 73%
17:00 +30°C° 0 mm 4 mps 746 mmHg 74%
18:00 +30°C° 0 mm 4 mps 746 mmHg 76%
19:00 +30°C° 0 mm 4 mps 746 mmHg 71%
20:00 +29°C° 0 mm 5 mps 746 mmHg 66%
21:00 +29°C° 0 mm 5 mps 746 mmHg 60%
22:00 +28°C° 0 mm 6 mps 746 mmHg 56%
23:00 +28°C° 0 mm 7 mps 746 mmHg 52%

15 July, Wednesday

Time Temperature Precipitation Wind Pressure Humidity
00:00 +28°C° 0 mm 8 mps 746 mmHg 48%
01:00 +27°C° 0 mm 7 mps 746 mmHg 51%
02:00 +26°C° 0 mm 6 mps 746 mmHg 55%
03:00 +25°C° 0 mm 5 mps 746 mmHg 58%
04:00 +25°C° 0 mm 4 mps 747 mmHg 64%
05:00 +25°C° 0 mm 4 mps 747 mmHg 71%
06:00 +25°C° 0 mm 4 mps 747 mmHg 77%
07:00 +26°C° 0 mm 3 mps 747 mmHg 73%
08:00 +27°C° 0 mm 3 mps 747 mmHg 69%
09:00 +29°C° 0 mm 3 mps 747 mmHg 66%
10:00 +29°C° 0 mm 3 mps 747 mmHg 65%
11:00 +30°C° 0 mm 3 mps 746 mmHg 64%
12:00 +31°C° 0 mm 3 mps 746 mmHg 63%
13:00 +30°C° 0 mm 3 mps 746 mmHg 66%
14:00 +30°C° 0 mm 3 mps 746 mmHg 68%
15:00 +30°C° 0 mm 3 mps 745 mmHg 71%
16:00 +29°C° 0 mm 3 mps 745 mmHg 72%
17:00 +29°C° 0 mm 3 mps 744 mmHg 74%
18:00 +29°C° 0 mm 3 mps 744 mmHg 75%
19:00 +28°C° 0 mm 3 mps 744 mmHg 76%
20:00 +26°C° 0 mm 3 mps 744 mmHg 76%
21:00 +25°C° 0 mm 2 mps 744 mmHg 77%
22:00 +25°C° 0 mm 2 mps 744 mmHg 75%
23:00 +25°C° 0 mm 2 mps 744 mmHg 74%
Show more